Location: Newark
(46.1292°N, 1.0086°W)
Time: 20:16:01
(UTC+00:00)

Transit 4A - Pass Details

Date: 26 November 2019
Orbit: 870 x 975 km, 66.8° (Epoch: 05 December)

Event Time Altitude Azimuth Distance (km) Brightness Sun altitude
Exits shadow 04:41:21 39° 349° (N) 1,302 8.5 -26.8°
Maximum altitude 04:43:27 62° 53° (NE) 983 8.1 -26.5°
Drops below altitude 10° 04:49:11 10° 134° (SE) 2,512 10.8 -25.5°
Sets 04:51:41 0° 138° (SE) 3,445 11.6 -25.0°
